[[{"header":{"parameterUnit":"m.s-1","parameterCategory":1,"la1":30.2991,"la2":30.254,"lo1":-89.0895,"lo2":-89.0444,"dy":0.0017,"dx":0.0017,"nx":28,"ny":28,"refTime":"2024-05-25T03:00:00:Z","depth":0,"parameterNumber":2,"parameterNumberName":"U-component_of_WINDS"},"data":[0,0,0,0,0,0,0,0,0,0,0,0,0,0,0,0,0,0,0,0,0,0,0,0,0,0,0,0,0,0,0,0,0,0,0,0,0,0,0,0,0,0,0,0,0,0,0,0,0,0,0,0,0,0,0,0,0,0,1.5341,1.5341,0,1.5355,1.5356,1.5356,1.5316,1.5314,1.5313,1.5312,1.5326,1.5328,1.5329,0,0,0,0,0,0,0,0,0,0,0,0,0,1.5276,1.5277,1.5341,1.5341,1.5341,1.5355,1.5356,1.5356,1.5316,1.5314,1.5313,1.5311,1.5326,1.5328,1.533,0,0,0,0,0,0,0,0,0,0,0,0,0,1.5299,1.5278,1.5341,1.5323,1.5321,1.5355,1.5356,1.5356,1.5316,1.5314,1.5312,1.5311,1.5325,1.5327,1.533,1.5382,0,0,1.5337,1.5338,0,0,0,0,0,0,0,0,1.5298,1.5301,1.5325,1.5324,1.5323,1.5332,1.5338,1.5364,1.5317,1.5318,1.5312,1.531,1.533,1.5331,1.5338,1.5382,1.5383,1.5337,1.5339,1.5339,1.534,0,0,0,0,0,0,0,1.5296,1.53,1.5346,1.5326,1.5324,1.5313,1.5315,1.5343,1.5334,1.5318,1.5315,1.5317,1.5328,1.5336,1.5338,1.5383,1.5337,1.5339,1.5341,1.5341,1.5468,1.547,0,0,0,0,0,0,1.5297,1.5299,1.5346,1.5347,1.5305,1.5316,1.5317,1.5331,1.5334,1.5332,1.5319,1.5315,1.5333,1.5336,1.5339,1.5398,1.5339,1.5342,1.5343,1.5466,1.5469,1.5471,0,0,0,0,0,0,1.5296,1.5302,1.5345,1.5322,1.5327,1.5319,1.5334,1.5332,1.534,1.5335,1.5333,1.5328,1.5332,1.5335,1.5371,1.5398,1.5343,1.5345,1.5464,1.5467,1.547,1.5518,0,0,0,0,0,0,1.5294,1.5301,1.5321,1.5323,1.5329,1.5378,1.5336,1.5334,1.5344,1.5339,1.5343,1.5342,1.5331,1.5368,1.5373,1.54,1.5347,1.5461,1.5465,1.5469,1.5514,1.5522,1.5529,0,0,0,0,0,1.5292,1.5335,1.5323,1.5329,1.5354,1.538,1.5383,1.5369,1.5346,1.5366,1.5362,1.5342,1.5394,1.5372,1.5377,1.5406,1.546,1.5464,1.5468,1.551,1.552,1.5529,0,0,0,0,0,0,1.5337,1.5335,1.5321,1.5366,1.5373,1.5373,1.5397,1.5381,1.5394,1.539,1.5372,1.5373,1.5411,1.5412,1.5387,1.5455,1.5423,1.5429,1.5453,1.5462,1.547,1.5468,1.5349,0,0,0,0,0,1.5352,1.5373,1.537,1.541,1.5415,1.5405,1.5416,1.5405,1.5412,1.5415,1.5414,1.5421,1.5438,1.5451,1.5467,1.5514,1.5513,1.5536,1.5544,1.555,1.5555,1.5578,1.5588,1.5485,1.5485,1.5485,0,0,1.5383,1.5385,1.54,1.5419,1.5423,1.5445,1.5408,1.5434,1.5449,1.5418,1.5451,1.5451,1.5457,1.5498,1.5516,1.55,1.5583,1.5556,1.5561,1.5562,1.5584,1.5593,1.5602,1.5488,1.5488,1.5487,0,0,1.5451,1.5455,1.5488,1.5493,1.5499,1.5493,1.5501,1.5503,1.5501,1.5534,1.551,1.5529,1.5561,1.5566,1.5572,1.5641,1.5622,1.5647,1.5687,1.5709,1.5717,1.5724,1.5747,1.5756,1.5652,1.5652,1.5652,0,1.5489,1.5522,1.5507,1.5533,1.5542,1.5515,1.5547,1.5552,1.5564,1.557,1.5552,1.559,1.5593,1.5634,1.565,1.5657,1.5664,1.5646,1.5718,1.5724,1.5731,1.5752,1.5761,1.5655,1.5655,1.5654,1.5654,0,1.5567,1.559,1.5615,1.5627,1.5638,1.5668,1.5656,1.567,1.5658,1.5653,1.5686,1.5688,1.5703,1.5712,1.5701,1.5751,1.5741,1.5721,1.5688,1.5744,1.5763,1.5772,1.5659,1.5658,1.5657,1.5656,0,0,1.5663,1.5666,1.5675,1.5679,1.5684,1.5701,1.5729,1.5744,1.5755,1.5764,1.5785,1.5813,1.5793,1.5801,1.579,1.581,1.5862,1.5787,1.5787,1.5799,1.5916,1.593,1.594,1.585,1.5851,1.5853,1.5914,0,1.5729,1.5776,1.5763,1.5809,1.5829,1.5803,1.5827,1.5832,1.5828,1.5844,1.584,1.5859,1.5833,1.5837,1.5856,1.5852,1.5885,1.5847,1.5869,1.587,1.5866,1.595,1.5965,1.6024,1.5922,1.5924,1.5925,0,1.5812,1.5823,1.5872,1.5872,1.588,1.5901,1.5913,1.5929,1.5934,1.593,1.5938,1.5922,1.5948,1.5916,1.5951,1.5926,1.5934,1.5933,1.5935,1.5935,1.5899,1.5951,1.6042,1.605,1.5937,1.5936,1.5935,0,1.5875,1.5903,1.5935,1.5939,1.5941,1.5956,1.5957,1.5961,1.597,1.598,1.5986,1.6,1.6007,1.6017,1.6005,1.5983,1.6041,1.6009,1.6037,1.6037,1.6049,1.6049,1.6141,1.6057,1.6057,1.6057,1.6057,0,1.5948,1.5979,1.5963,1.5982,1.6015,1.5999,1.6032,1.603,1.6033,1.6051,1.6031,1.6048,1.6032,1.6048,1.6039,1.6068,1.6072,1.6068,1.6065,1.6069,1.6069,1.6073,1.6068,1.6059,1.6059,1.6059,1.6058,0,1.6024,1.6015,1.6047,1.6046,1.6046,1.607,1.6069,1.6086,1.6081,1.6104,1.6108,1.61,1.6117,1.6106,1.6124,1.6118,1.6156,1.6148,1.6154,1.6151,1.618,1.6176,1.6277,1.6288,1.6199,1.62,1.62,0,1.6071,1.6093,1.6094,1.6104,1.6107,1.6124,1.6133,1.6119,1.6129,1.6136,1.6152,1.6168,1.618,1.6209,1.6203,1.6217,1.6208,1.6242,1.621,1.6213,1.6206,1.6205,1.6206,1.6248,1.6249,1.625,1.6251,0,1.6154,1.6148,1.6162,1.6174,1.6185,1.6194,1.6202,1.6212,1.6197,1.6209,1.6227,1.6236,1.6254,1.6269,1.628,1.628,1.6263,1.6261,1.6268,1.6272,1.6274,1.6271,1.617,1.6259,1.6258,1.6257,1.6257,1.6257,1.6215,1.6233,1.6236,1.6252,1.6256,1.6263,1.6278,1.6275,1.6289,1.6302,1.6293,1.6313,1.6316,1.6329,1.6332,1.6347,1.6333,1.6344,1.6346,1.6348,1.6351,1.6273,1.6349,1.6349,1.6349,1.6349,1.6348,0,1.6295,1.6296,1.6311,1.6321,1.6333,1.6316,1.6323,1.6334,1.6352,1.6357,1.6368,1.6387,1.6402,1.6398,1.6411,1.6424,1.6416,1.6427,1.6425,1.6425,1.6364,1.6356,1.6433,1.6433,1.6433,1.6433,1.6433,1.6433,1.6339,1.6368,1.6362,1.6392,1.6392,1.6412,1.6417,1.6423,1.6426,1.6448,1.646,1.6458,1.6458,1.6471,1.6483,1.6481,1.6486,1.6501,1.6496,1.6438,1.643,1.6422,1.6414,1.6502,1.6502,1.6556,1.6556,1.6556]},{"header":{"parameterUnit":"m.s-1","parameterCategory":1,"la1":30.2991,"la2":30.254,"lo1":-89.0895,"lo2":-89.0444,"dy":0.0017,"dx":0.0017,"nx":28,"ny":28,"refTime":"2024-05-25T03:00:00:Z","depth":0,"parameterNumber":3,"parameterNumberName":"V-component_of_WINDS"},"data":[0,0,0,0,0,0,0,0,0,0,0,0,0,0,0,0,0,0,0,0,0,0,0,0,0,0,0,0,0,0,0,0,0,0,0,0,0,0,0,0,0,0,0,0,0,0,0,0,0,0,0,0,0,0,0,0,0,0,4.7371,4.7372,0,4.7485,4.7486,4.7488,4.7463,4.7461,4.7459,4.7457,4.7571,4.7575,4.758,0,0,0,0,0,0,0,0,0,0,0,0,0,4.7129,4.7134,4.7371,4.7372,4.7374,4.7485,4.7486,4.7488,4.7464,4.7461,4.7459,4.7456,4.7569,4.7575,4.7581,0,0,0,0,0,0,0,0,0,0,0,0,0,4.7238,4.7135,4.7371,4.7375,4.7377,4.7484,4.7486,4.7488,4.7464,4.7461,4.7458,4.7455,4.7567,4.7574,4.7582,4.7691,0,0,4.7604,4.7608,0,0,0,0,0,0,0,0,4.7231,4.7246,4.7373,4.7375,4.7377,4.7457,4.7443,4.7556,4.7465,4.7431,4.7457,4.7454,4.7535,4.7545,4.7573,4.7696,4.7701,4.7605,4.761,4.7613,4.7615,0,0,0,0,0,0,0,4.7224,4.7241,4.7416,4.7375,4.7377,4.737,4.7382,4.7464,4.7499,4.7434,4.7432,4.7446,4.7535,4.7566,4.7576,4.7703,4.7605,4.7612,4.7616,4.7619,4.792,4.7924,0,0,0,0,0,0,4.7215,4.7235,4.7412,4.7419,4.7295,4.7377,4.7391,4.7434,4.7498,4.7505,4.7449,4.7445,4.7555,4.7567,4.758,4.7712,4.7613,4.762,4.7624,4.7917,4.7921,4.7925,0,0,0,0,0,0,4.721,4.7231,4.7408,4.7327,4.7349,4.7385,4.7434,4.7438,4.7469,4.751,4.7516,4.7474,4.7553,4.7569,4.7664,4.7715,4.7623,4.763,4.7913,4.7918,4.7923,4.7977,0,0,0,0,0,0,4.7203,4.723,4.7272,4.7328,4.7353,4.7491,4.7437,4.7443,4.7482,4.7478,4.7535,4.7541,4.7552,4.7653,4.7671,4.7724,4.7636,4.7908,4.7915,4.7922,4.797,4.7983,4.7994,0,0,0,0,0,4.7195,4.7282,4.7275,4.7296,4.7408,4.7494,4.7508,4.752,4.7486,4.7529,4.7555,4.7539,4.7707,4.7662,4.7683,4.7739,4.7905,4.7913,4.7921,4.7965,4.798,4.7994,0,0,0,0,0,0,4.723,4.7289,4.7282,4.739,4.7437,4.749,4.7544,4.7536,4.7592,4.7586,4.7596,4.7609,4.7706,4.7732,4.7681,4.7848,4.7801,4.7813,4.7827,4.7842,4.7854,4.7846,4.7642,0,0,0,0,0,4.7251,4.7317,4.7365,4.7455,4.748,4.7508,4.7546,4.7551,4.76,4.7619,4.7652,4.7699,4.7762,4.7804,4.7864,4.7974,4.7986,4.8022,4.8034,4.8043,4.8054,4.8114,4.813,4.7951,4.7951,4.7951,0,0,4.7293,4.7334,4.7375,4.7464,4.7501,4.7568,4.7525,4.7598,4.7648,4.763,4.7721,4.7747,4.7801,4.7903,4.795,4.7928,4.8106,4.8054,4.8061,4.8066,4.8124,4.8141,4.8156,4.7957,4.7956,4.7955,0,0,4.7406,4.7444,4.7523,4.7562,4.7619,4.7637,4.7656,4.7711,4.7727,4.782,4.7808,4.7866,4.7975,4.8013,4.8047,4.8174,4.8161,4.8193,4.8255,4.8313,4.8327,4.834,4.8385,4.8401,4.8204,4.8204,4.8204,0,4.7452,4.7554,4.7565,4.764,4.7679,4.7667,4.7747,4.7783,4.7857,4.7884,4.7858,4.7994,4.8029,4.814,4.8172,4.8199,4.8221,4.8187,4.8324,4.8337,4.8349,4.8392,4.8409,4.8208,4.8207,4.8207,4.8206,0,4.7607,4.7678,4.7735,4.7808,4.7853,4.793,4.7953,4.7997,4.7998,4.8018,4.8112,4.8154,4.8222,4.8249,4.825,4.836,4.8345,4.8322,4.8275,4.8369,4.841,4.8427,4.8213,4.8211,4.821,4.8209,0,0,4.7745,4.7823,4.7844,4.7877,4.7939,4.7994,4.807,4.8138,4.8176,4.8227,4.829,4.8383,4.8362,4.84,4.8405,4.8456,4.8554,4.8426,4.8428,4.8449,4.8678,4.8695,4.8714,4.8546,4.8549,4.8551,4.8673,0,4.7863,4.7999,4.8011,4.8132,4.8198,4.8187,4.8253,4.8298,4.8319,4.8377,4.8399,4.8465,4.8432,4.8456,4.8506,4.8531,4.86,4.8523,4.8604,4.8607,4.8591,4.8736,4.8754,4.8867,4.8689,4.8692,4.8694,0,4.8019,4.8076,4.8204,4.8257,4.8285,4.8345,4.8408,4.8464,4.8514,4.8526,4.8569,4.8567,4.8644,4.8595,4.8701,4.8648,4.8682,4.87,4.8704,4.8712,4.8656,4.8747,4.8904,4.8921,4.8719,4.8717,4.8716,0,4.8107,4.8216,4.8306,4.8335,4.8399,4.8441,4.8469,4.8516,4.8557,4.8612,4.8638,4.87,4.8735,4.8783,4.8798,4.876,4.8903,4.8855,4.8915,4.8914,4.8945,4.8943,4.9109,4.8967,4.8967,4.8967,4.8966,0,4.8238,4.8317,4.8347,4.8402,4.849,4.8503,4.8589,4.8615,4.8657,4.8717,4.8711,4.8767,4.8783,4.8842,4.8854,4.894,4.8955,4.8966,4.8968,4.8967,4.8966,4.8989,4.8982,4.8971,4.897,4.8969,4.8968,0,4.8351,4.8374,4.8472,4.8525,4.854,4.8603,4.8647,4.8701,4.8721,4.8797,4.8815,4.8846,4.8915,4.8935,4.9017,4.9025,4.9126,4.9121,4.911,4.911,4.9168,4.9162,4.9355,4.9381,4.9222,4.9224,4.9225,0,4.8433,4.8493,4.8553,4.8593,4.8624,4.8689,4.873,4.8744,4.8787,4.8849,4.8895,4.8963,4.9018,4.9129,4.9158,4.9221,4.9217,4.9281,4.9227,4.9223,4.9218,4.9215,4.9221,4.9291,4.9292,4.9294,4.9295,0,4.8576,4.8584,4.8645,4.8709,4.8759,4.881,4.8859,4.8892,4.8913,4.8962,4.9033,4.9076,4.916,4.9228,4.9292,4.932,4.9311,4.9312,4.9329,4.9328,4.9319,4.9325,4.9138,4.9307,4.9306,4.9305,4.9304,4.9304,4.8676,4.8729,4.878,4.8847,4.8885,4.8931,4.8984,4.9011,4.9071,4.9142,4.9146,4.9223,4.9271,4.9356,4.9388,4.9447,4.9428,4.9453,4.9459,4.9465,4.947,4.9309,4.9459,4.9458,4.9458,4.9458,4.9458,0,4.8818,4.885,4.8912,4.8982,4.9034,4.9022,4.9076,4.9121,4.9189,4.9235,4.929,4.9371,4.9437,4.9471,4.9536,4.9577,4.9575,4.9594,4.9591,4.9598,4.9483,4.9462,4.9595,4.9595,4.9595,4.9595,4.9595,4.9595,4.8899,4.8988,4.9003,4.9111,4.9142,4.9218,4.925,4.9292,4.9329,4.9421,4.9475,4.9498,4.954,4.9608,4.9667,4.9675,4.9699,4.9721,4.9727,4.962,4.9606,4.9592,4.9572,4.9726,4.9726,4.9836,4.9837,4.9838]}]]